Regional Weather Roundup
Issued by NWS Northern Indiana

Home | Current Version | Previous Version | Text Only | Print | Product List | Glossary Off
Versions: 1 2 3 4 5 6 7 8 9 10 11 12 13 14 15 16 17 18 19 20 21 22 23 24 25 26 27 28 29 30 31 32 33 34 35 36 37 38 39 40 41 42 43 44 45 46 47 48 49 50

000
ASUS43 KIWX 210500
RWRIWX

KIWX WEATHER ROUNDUP
NATIONAL WEATHER SERVICE NORTHERN INDIANA
100 AM EDT FRI JUL 21 2017

NOTE: "FAIR" INDICATES FEW OR NO CLOUDS BELOW 12,000 FEET WITH NO
SIGNIFICANT WEATHER AND/OR OBSTRUCTIONS TO VISIBILITY.

* THESE STATIONS ARE NOT UNDER NWS QUALITY CONTROL. THEY ALSO MAY NOT
  REPORT WEATHER SUCH AS PRECIPITATION OR FOG.

INZ001>027-210600-
NORTHERN INDIANA

CITY           SKY/WX    TMP DP  RH WIND       PRES   REMARKS
GARY*          CLEAR     76  70  82 NE5       29.98R
MICHIGAN CITY* CLEAR     68  68 100 CALM      29.99S
SOUTH BEND     CLEAR     70  69  97 CALM      29.99R
GOSHEN         CLEAR     73  69  87 NW5       29.98R
MONTICELLO*    MOCLDY    78  77  96 CALM      29.96R
WARSAW*        CLEAR     73  73 100 CALM      29.98R FOG
FORT WAYNE     PTCLDY    76  73  91 W5        29.97S
PERU/GRISSOM   PTCLDY    78  78 100 CALM      29.96S

$$
INZ028>050-210600-
CENTRAL INDIANA

CITY           SKY/WX    TMP DP  RH WIND       PRES   REMARKS
LAFAYETTE      CLOUDY    79  79 100 CALM      29.95S
KOKOMO*        CLOUDY    79  77  94 CALM      29.98S
MUNCIE*        PTCLDY    82  76  81 SW7       29.98S
INDIANAPOLIS   PTCLDY    80  75  84 SW9       29.97F

$$
MIZ043>046-050>051-056>058-064>065-071>073-077>080-210600-
SOUTHWEST LOWER MICHIGAN

CITY           SKY/WX    TMP DP  RH WIND       PRES   REMARKS
BATTLE CREEK   CLEAR     71  69  93 CALM      29.99R
BENTON HARBOR  CLEAR     67  65  93 CALM      29.97R FOG
COLDWATER*     CLEAR     69  69 100 CALM      29.99R
HILLSDALE*     MOCLDY    68  68 100 CALM      29.98S FOG
HOLLAND        CLEAR     69  66  90 CALM      29.98R
GRAND RAPIDS   CLEAR     73  69  87 NW6       29.98R
KALAMAZOO      CLEAR     69  65  86 NW5       29.99R
STURGIS*       CLEAR     69  69  99 CALM      29.98R
THREE RIVERS*  FAIR      69  69  97 CALM      29.99R

$$
OHZ001>008-015>018-024>025-210600-
NORTHWEST OHIO

CITY           SKY/WX    TMP DP  RH WIND       PRES   REMARKS
DEFIANCE       CLEAR    N/A N/A N/A SW3       29.96R
FINDLAY        PTCLDY    78  71  79 S5        29.95F
TOLEDO EXPRESS CLEAR     72  72 100 CALM      29.95S
TOLEDO METCALF CLEAR     75  73  93 CALM      29.96S
LIMA           PTCLDY    77  75  93 S8        29.98S

$$
AND FOR LAKE MICHIGAN COASTAL AND OPEN LAKE BUOY OBSERVATIONS

STATION/POSITION TEMP    WIND        PRES    VSBY  WAVE
                 AIR SEA DIR/SP/G                  HT/PER
                 (F)     (DEG/KT/KT) (MB)    (MI)  (FT/S)
CALUMET HARBOR    74      50/  2/  2 1014.5S
MICHIGAN CITY     76      60/  3/  3   N/A
BURNS HARBOR      75      70/  5/  6 1015.2S
SAINT JOSEPH      73      CALM  /  1 1015.6
SOUTH LAKE BUOY   71 71  310/  4/  4 1014.5          1
4 MI NW BRIDGMAN  74 75   CALM  /  2 1014.7R         0
MICHIGAN CITY     75 74   CALM  /  2   N/A           0

$$
&&




USA.gov is the U.S. government's official web portal to all federal, state and local government web resources and services.